1530727200.57,6813,19.56,74164.0,5.85,1.37,1.59,0,*41
1530727201.76,6814,19.56,74164.8,5.83,1.41,1.59,0,*41
1530727202.97,6815,19.56,74164.3,5.83,1.47,1.59,0,*46
1530727204.18,6816,19.56,74166.5,5.83,1.47,1.63,0,*4C
1530727205.39,6817,19.56,74164.3,5.83,1.59,1.63,0,*42
1530727206.61,6818,19.56,74166.3,5.83,1.59,1.63,0,*4D
1530727207.82,6819,19.56,74166.3,5.83,1.59,1.63,0,*4C
1530727209.05,6820,19.63,74166.0,5.85,1.59,1.59,0,*49
1530727210.28,6821,19.56,74164.5,5.85,1.59,1.63,0,*41
1530727211.52,6822,19.56,74164.5,5.85,1.63,1.63,0,*4B
1530727212.74,6823,19.56,74166.8,5.83,1.63,1.63,0,*4C
1530727213.95,6824,19.56,74166.0,5.83,1.63,1.51,0,*4A
1530727215.19,6825,19.56,74162.8,5.85,1.63,1.47,0,*4A
1530727216.4,6826,19.56,74164.5,5.83,1.71,1.51,0,*4B
1530727217.62,6827,19.56,74166.5,5.83,1.63,1.51,0,*49
1530727218.83,6828,19.56,74164.8,5.85,1.63,1.41,0,*41
1530727220.05,6829,19.56,74166.3,5.83,1.63,1.37,0,*47
1530727221.29,6830,19.56,74162.3,5.85,1.71,1.37,0,*4A
1530727222.48,6831,19.56,74162.3,5.83,1.71,1.41,0,*4C
1530727223.67,6832,19.56,74162.0,5.83,1.75,1.25,0,*49
1530727224.88,6833,19.56,74164.0,5.85,1.75,1.25,0,*4E
1530727226.1,6834,19.56,74162.8,5.85,1.75,1.13,0,*4C
1530727227.32,6835,19.56,74164.5,5.83,1.71,1.09,0,*44
1530727228.51,6836,19.56,74166.8,5.83,1.71,1.01,0,*4F
1530727229.7,6837,19.56,74166.8,5.83,1.83,1.09,0,*4B
1530727230.95,6838,19.56,74164.5,5.85,1.85,1.09,0,*44
1530727232.14,6839,19.56,74164.3,5.83,1.93,1.01,0,*4C
1530727233.35,6840,19.63,74168.3,5.85,1.93,1.01,0,*44
1530727234.56,6841,19.56,74166.5,5.85,1.97,0.97,0,*7F
1530727235.8,6842,19.56,74166.3,5.85,1.93,0.91,0,*7E
1530727237.01,6843,19.63,74164.3,5.83,2.05,0.91,0,*75
1530727238.25,6844,19.56,74166.3,5.85,2.05,0.75,0,*7E
1530727239.46,6845,19.56,74162.3,5.83,2.05,0.63,0,*7E
1530727240.68,6846,19.56,74164.5,5.83,1.97,0.55,0,*70
1530727241.92,6847,19.56,74162.8,5.85,1.97,0.51,0,*73
1530727243.16,6848,19.56,74166.8,5.85,1.97,0.47,0,*7B
1530727244.4,6849,19.56,74166.5,5.85,1.97,0.37,0,*7D
1530727245.64,6850,19.56,74166.8,5.85,1.97,0.29,0,*7A
1530727246.85,6851,19.56,74166.5,5.83,1.97,0.25,0,*71
1530727248.08,6852,19.56,74164.8,5.85,1.93,0.13,0,*75
1530727249.32,6853,19.56,74164.0,5.85,1.93,0.13,0,*74
1530727250.52,6854,19.56,74164.0,5.85,1.93,0.01,0,*40
1530727251.74,6855,19.56,74166.8,5.85,1.85,-0.07,0,*6D
1530727252.97,6856,19.56,74164.0,5.85,1.85,-0.11,0,*59
1530727254.18,6857,19.56,74164.8,5.85,1.83,-0.27,0,*5B
1530727255.37,6858,19.56,74164.8,5.85,1.75,-0.37,0,*5C
1530727256.59,6859,19.56,74164.0,5.85,1.71,-0.49,0,*50
1530727257.79,6860,19.56,74166.0,5.83,1.71,-0.45,0,*50
1530727258.99,6861,19.56,74166.8,5.83,1.63,-0.49,0,*5E
1530727260.2,6862,19.56,74166.5,5.85,1.59,-0.61,0,*58
1530727261.42,6863,19.56,74166.8,5.85,1.47,-0.73,0,*55
1530727262.63,6864,19.56,74166.3,5.85,1.41,-0.85,0,*5D
1530727263.88,6865,19.56,74162.8,5.85,1.33,-0.97,0,*5A
1530727265.1,6866,19.56,74166.5,5.83,1.33,-0.97,0,*5F
1530727266.33,6867,19.56,74162.0,5.83,1.33,-0.97,0,*5E
1530727267.57,6868,19.56,74162.8,5.85,1.25,-1.09,0,*66
1530727268.79,6869,19.56,74164.8,5.83,1.25,-1.09,0,*61
1530727270.02,6870,19.56,74164.8,5.83,1.13,-1.13,0,*67
1530727271.22,6871,19.56,74164.8,5.85,1.01,-1.21,0,*62
1530727272.41,6872,19.56,74164.3,5.85,0.97,-1.33,0,*5C
1530727273.61,6873,19.56,74164.5,5.83,0.91,-1.33,0,*5D
1530727274.83,6874,19.56,74168.0,5.85,0.91,-1.33,0,*5C
1530727276.04,6875,19.56,74164.0,5.85,0.87,-1.33,0,*5A
1530727277.23,6876,19.56,74166.8,5.83,0.75,-1.33,0,*52
1530727278.45,6877,19.56,74166.0,5.83,0.75,-1.35,0,*55
1530727279.68,6878,19.56,74164.8,5.85,0.67,-1.35,0,*5F
1530727280.87,6879,19.56,74166.3,5.83,0.63,-1.33,0,*5A
1530727282.09,6880,19.56,74164.0,5.83,0.41,-1.35,0,*5A
1530727283.3,6881,19.56,74166.8,5.83,0.41,-1.43,0,*5A
1530727284.52,6882,19.56,74166.5,5.83,0.29,-1.35,0,*56
1530727285.74,6883,19.56,74166.3,5.83,0.29,-1.35,0,*57
1530727286.96,6884,19.56,74164.8,5.83,0.25,-1.35,0,*5C
1530727288.15,6885,19.56,74164.3,5.83,0.05,-1.35,0,*6F
1530727289.34,6886,19.56,74164.3,5.83,0.05,-1.35,0,*6C
1530727290.51,6887,19.63,74168.5,5.83,-0.07,-1.33,0,*44
1530727291.68,6888,19.56,74166.5,5.83,-0.19,-1.33,0,*74
1530727292.88,6889,19.56,74162.8,5.83,-0.27,-1.25,0,*7F
1530727294.05,6890,19.63,74168.0,5.83,-0.33,-1.25,0,*72
1530727295.22,6891,19.56,74164.3,5.83,-0.49,-1.33,0,*79
1530727296.39,6892,19.56,74164.0,5.83,-0.49,-1.21,0,*79
1530727297.59,6893,19.56,74166.0,5.83,-0.57,-1.13,0,*76
1530727298.77,6894,19.56,74166.0,5.83,-0.73,-1.21,0,*76
1530727299.98,6895,19.56,74164.0,5.83,-0.97,-1.21,0,*7D
1530727301.18,6896,19.56,74164.8,5.83,-1.09,-1.25,0,*4C
1530727302.36,6897,19.56,74164.8,5.83,-1.21,-1.25,0,*47
1530727303.57,6898,19.56,74166.3,5.83,-1.21,-1.09,0,*46
1530727304.77,6899,19.56,74164.5,5.83,-1.33,-0.93,0,*76
1530727305.97,6900,19.56,74164.5,5.83,-1.33,-0.93,0,*77
1530727307.17,6901,19.56,74164.0,5.83,-1.43,-0.81,0,*72
1530727308.38,6902,19.56,74164.5,5.81,-1.59,-0.89,0,*70
1530727309.63,6903,19.56,74164.8,5.81,-1.83,-0.89,0,*76
1530727310.85,6904,19.56,74164.0,5.81,-1.83,-0.73,0,*74
1530727312.05,6905,19.56,74166.5,5.79,-1.87,-0.65,0,*71
1530727313.27,6906,19.56,74162.5,5.81,-1.87,-0.53,0,*70
1530727314.5,6907,19.56,74164.5,5.81,-1.87,-0.37,0,*73
1530727315.72,6908,19.56,74166.5,5.81,-1.91,-0.37,0,*7B
1530727316.94,6909,19.56,74168.0,5.79,-1.87,-0.23,0,*7F
1530727318.17,6910,19.56,74164.8,5.81,-1.91,-0.11,0,*76
1530727319.38,6911,19.56,74166.5,5.81,-1.91,0.01,0,*6B
1530727320.57,6912,19.56,74166.5,5.79,-1.99,0.01,0,*67
1530727321.79,6913,19.56,74164.5,5.81,-2.03,0.09,0,*69
1530727323.04,6914,19.56,74166.8,5.81,-1.99,0.21,0,*54
1530727324.28,6915,19.56,74166.5,5.81,-2.11,0.25,0,*52
1530727325.53,6916,19.56,74166.3,5.81,-1.99,0.37,0,*51
1530727326.75,6917,19.56,74164.5,5.79,-1.87,0.51,0,*58
1530727327.99,6918,19.56,74168.3,5.81,-1.91,0.59,0,*5F
1530727329.21,6919,19.56,74164.8,5.79,-1.87,0.71,0,*54
1530727330.4,6920,19.56,74166.3,5.79,-1.75,0.83,0,*5E
1530727331.59,6921,19.56,74164.3,5.79,-1.71,0.95,0,*5C
1530727332.78,6922,19.56,74166.5,5.79,-1.71,0.95,0,*5F
1530727333.95,6923,19.56,74164.8,5.79,-1.63,1.05,0,*65
1530727335.11,6924,19.56,74166.3,5.79,-1.51,1.05,0,*63
1530727336.3,6925,19.56,74166.8,5.79,-1.51,1.17,0,*61
1530727337.51,6926,19.56,74160.5,5.79,-1.29,1.37,0,*6F
1530727338.7,6927,19.56,74164.0,5.79,-1.29,1.55,0,*6A
1530727339.9,6928,19.56,74166.0,5.79,-1.17,1.55,0,*68
1530727341.13,6929,19.56,74164.0,5.81,-1.17,1.55,0,*6E
1530727342.34,6930,19.56,74164.5,5.79,-1.09,1.59,0,*62
1530727343.58,6931,19.56,74168.5,5.77,-1.01,1.67,0,*68
1530727344.8,6932,19.56,74166.8,5.77,-0.89,1.75,0,*59
1530727346.02,6933,19.56,74164.8,5.77,-0.81,1.85,0,*5F
1530727347.21,6934,19.56,74164.8,5.77,-0.81,1.75,0,*57
1530727348.42,6935,19.56,74166.5,5.77,-0.69,1.89,0,*53
1530727349.63,6936,19.56,74164.0,5.77,-0.57,1.89,0,*5D
1530727350.84,6937,19.56,74164.0,5.77,-0.53,2.05,0,*5F
1530727352.04,6938,19.56,74164.0,5.79,-0.37,2.17,0,*5F
1530727353.23,6939,19.56,74164.8,5.79,-0.37,2.21,0,*5B
1530727354.44,6940,19.56,74166.3,5.77,-0.29,2.13,0,*55
1530727355.63,6941,19.56,74164.5,5.79,-0.37,2.09,0,*5E
1530727356.83,6942,19.56,74166.3,5.79,-0.41,2.01,0,*54
1530727358.05,6943,19.56,74164.8,5.77,-0.41,2.01,0,*5B
1530727359.26,6944,19.56,74164.8,5.79,-0.27,2.09,0,*5A
1530727360.48,6945,19.56,74164.5,5.77,-0.19,2.17,0,*57
1530727361.69,6946,19.56,74164.3,5.77,-0.07,2.25,0,*6A
1530727362.9,6947,19.56,74164.0,5.77,0.05,2.25,0,*44
1530727364.07,6948,19.56,74164.0,5.77,0.09,2.27,0,*45
1530727365.25,6949,19.56,74164.3,5.77,0.09,2.35,0,*47
1530727366.46,6950,19.56,74166.0,5.77,0.21,2.35,0,*75
1530727367.66,6951,19.56,74164.5,5.77,0.29,2.35,0,*7C
1530727368.87,6952,19.56,74166.5,5.77,0.21,2.35,0,*77
1530727370.06,6953,19.56,74166.8,5.77,0.33,2.35,0,*75
1530727371.3,6954,19.56,74168.0,5.77,0.41,2.39,0,*7B
1530727372.53,6955,19.56,74166.8,5.77,0.41,2.39,0,*7A
1530727373.76,6956,19.56,74166.3,5.77,0.47,2.47,0,*76
1530727374.99,6957,19.56,74166.3,5.77,0.55,2.47,0,*74
1530727376.23,6958,19.56,74164.3,5.77,0.59,2.39,0,*7E
1530727377.46,6959,19.56,74164.0,5.77,0.59,2.39,0,*7F
1530727378.67,6960,19.56,74164.0,5.79,0.71,2.43,0,*7C
1530727379.86,6961,19.56,74164.5,5.79,0.75,2.61,0,*79
1530727381.1,6962,19.56,74164.3,5.77,0.79,2.51,0,*7B
1530727382.34,6963,19.56,74164.8,5.77,0.83,2.51,0,*7F
1530727383.58,6964,19.56,74166.3,5.77,0.83,2.51,0,*78
1530727384.79,6965,19.56,74164.0,5.77,1.01,2.59,0,*4A
1530727386.0,6966,19.56,74164.3,5.79,1.09,2.61,0,*44
1530727387.2,6967,19.56,74164.5,5.79,1.17,2.65,0,*4E
1530727388.42,6968,19.56,74168.5,5.77,1.05,2.59,0,*43
1530727389.64,6969,19.56,74166.0,5.77,1.05,2.59,0,*42
1530727390.86,6970,19.56,74164.8,5.79,1.17,2.55,0,*4B
1530727392.11,6971,19.56,74166.8,5.77,1.17,2.51,0,*40
1530727393.35,6972,19.56,74166.8,5.77,1.25,2.59,0,*4A
1530727394.56,6973,19.56,74160.5,5.79,1.33,2.61,0,*49
1530727395.8,6974,19.56,74164.0,5.77,1.25,2.51,0,*44
1530727397.01,6975,19.56,74166.3,5.79,1.37,2.65,0,*4F
1530727398.22,6976,19.56,74166.8,5.77,1.43,2.61,0,*45
1530727399.44,6977,19.56,74164.5,5.77,1.41,2.51,0,*45
1530727400.66,6978,19.56,74164.5,5.75,1.47,2.55,0,*4A
1530727401.9,6979,19.56,74166.0,5.77,1.55,2.69,0,*45
1530727403.12,6980,19.56,74166.5,5.75,1.51,2.59,0,*46
1530727404.34,6981,19.56,74164.0,5.77,1.63,2.61,0,*4F
1530727405.55,6982,19.56,74166.8,5.75,1.63,2.59,0,*45
1530727406.77,6983,19.56,74164.0,5.75,1.71,2.59,0,*47
1530727407.97,6984,19.56,74166.3,5.75,1.83,2.59,0,*4D
1530727409.16,6985,19.56,74164.3,5.75,1.83,2.59,0,*4C
1530727410.36,6986,19.56,74164.3,5.75,1.97,2.65,0,*45
1530727411.6,6987,19.56,74164.3,5.77,1.97,2.69,0,*4A
1530727412.84,6988,19.56,74166.3,5.77,2.05,2.73,0,*46
1530727414.06,6989,19.56,74166.5,5.77,2.01,2.61,0,*40
1530727415.28,6990,19.56,74162.0,5.75,1.97,2.59,0,*4D
1530727416.5,6991,19.56,74166.5,5.77,2.17,2.61,0,*4E
1530727417.75,6992,19.56,74164.5,5.77,2.17,2.59,0,*46
1530727418.95,6993,19.56,74166.5,5.77,2.27,2.61,0,*4F
1530727420.17,6994,19.56,74168.5,5.77,2.25,2.61,0,*4A
1530727421.41,6995,19.56,74164.8,5.77,2.25,2.51,0,*48
1530727422.65,6996,19.56,74164.0,5.77,2.25,2.59,0,*43
1530727423.87,6997,19.56,74166.0,5.75,2.25,2.47,0,*4F
1530727425.06,6998,19.56,74166.8,5.79,2.43,2.61,0,*48
1530727426.31,6999,19.56,74168.0,5.77,2.39,2.51,0,*49
1530727427.56,7000,19.56,74164.8,5.77,2.39,2.51,0,*41
1530727428.77,7001,19.56,74168.0,5.75,2.43,2.47,0,*48
1530727429.99,7002,19.56,74166.3,5.81,2.55,2.61,0,*43
1530727431.19,7003,19.56,74164.5,5.79,2.55,2.61,0,*45
1530727432.38,7004,19.56,74164.5,5.79,2.61,2.55,0,*42
1530727433.62,7005,19.56,74166.5,5.77,2.51,2.51,0,*4A
1530727434.87,7006,19.56,74164.5,5.77,2.51,2.51,0,*49
1530727436.12,7007,19.56,74164.8,5.77,2.51,2.39,0,*46
1530727437.31,7008,19.56,74164.8,5.75,2.47,2.35,0,*40
1530727438.55,7009,19.56,74166.8,5.77,2.51,2.39,0,*48
1530727439.74,7010,19.56,74166.0,5.75,2.55,2.35,0,*4A
1530727440.98,7011,19.56,74166.3,5.77,2.59,2.39,0,*49
1530727442.22,7012,19.56,74164.0,5.77,2.59,2.39,0,*4A
1530727443.44,7013,19.56,74166.5,5.77,2.59,2.27,0,*44
1530727444.62,7014,19.56,74164.8,5.77,2.61,2.35,0,*4B
1530727445.86,7015,19.56,74162.5,5.77,2.85,2.47,0,*45
1530727447.1,7016,19.56,74166.8,5.77,2.77,2.51,0,*4C
1530727448.34,7017,19.56,74168.0,5.77,2.77,2.51,0,*4D
1530727449.58,7018,19.56,74166.3,5.77,2.85,2.51,0,*4F
1530727450.82,7019,19.56,74164.8,5.77,2.77,2.59,0,*4B
1530727452.06,7020,19.56,74162.3,5.77,2.77,2.47,0,*4E
1530727453.3,7021,19.56,74164.5,5.77,2.77,2.59,0,*40
1530727454.52,7022,19.56,74164.8,5.79,2.89,2.51,0,*44
1530727455.73,7023,19.56,74168.8,5.79,2.89,2.51,0,*45
1530727456.97,7024,19.56,74164.3,5.77,2.85,2.39,0,*4E
1530727458.21,7025,19.56,74160.3,5.77,2.85,2.39,0,*4F
1530727459.41,7026,19.56,74166.3,5.79,2.91,2.51,0,*49
1530727460.64,7027,19.56,74164.0,5.77,2.85,2.47,0,*44
1530727461.88,7028,19.56,74166.3,5.77,2.85,2.47,0,*4B
1530727463.11,7029,19.56,74166.5,5.77,2.85,2.47,0,*4A
1530727464.35,7030,19.56,74166.3,5.77,2.85,2.39,0,*4B
1530727465.56,7031,19.56,74164.8,5.77,2.85,2.27,0,*45
1530727466.75,7032,19.56,74166.5,5.79,2.81,2.31,0,*4B
1530727467.93,7033,19.56,74162.5,5.79,2.89,2.27,0,*45
1530727469.12,7034,19.56,74162.5,5.79,2.89,2.31,0,*45
1530727470.3,7035,19.56,74164.3,5.79,2.89,2.31,0,*44
1530727471.49,7036,19.56,74164.0,5.79,2.81,2.31,0,*4F
1530727472.7,7037,19.56,74162.5,5.79,2.89,2.39,0,*4E
1530727473.89,7038,19.56,74166.5,5.79,2.89,2.31,0,*49
1530727475.07,7039,19.56,74166.8,5.79,2.89,2.31,0,*48
1530727476.25,7040,19.56,74168.0,5.79,2.89,2.31,0,*46
1530727477.45,7041,19.56,74166.5,5.79,2.91,2.39,0,*46
1530727478.64,7042,19.56,74164.8,5.79,2.91,2.43,0,*48
1530727479.84,7043,19.56,74166.3,5.79,2.91,2.39,0,*44
1530727481.0,7044,19.56,74162.8,5.79,2.91,2.31,0,*4B
1530727482.22,7045,19.56,74162.3,5.79,2.81,2.39,0,*43
1530727483.41,7046,19.56,74164.8,5.79,2.81,2.31,0,*48
1530727484.59,7047,19.56,74162.3,5.79,2.73,2.31,0,*44
1530727485.77,7048,19.56,74160.8,5.79,2.73,2.27,0,*4C
1530727486.96,7049,19.56,74166.0,5.79,2.77,2.27,0,*49
1530727488.2,7050,19.56,74164.0,5.81,2.77,2.39,0,*49
1530727489.41,7051,19.56,74164.5,5.79,2.89,2.39,0,*4E
1530727490.63,7052,19.56,74162.5,5.79,2.89,2.43,0,*40
1530727491.82,7053,19.56,74164.0,5.79,2.91,2.43,0,*48
1530727493.02,7054,19.56,74166.0,5.79,2.91,2.43,0,*4F
1530727494.2,7055,19.56,74164.0,5.79,2.81,2.31,0,*4A
1530727495.42,7056,19.56,74162.0,5.79,2.81,2.39,0,*41
1530727496.64,7057,19.56,74166.3,5.79,2.81,2.39,0,*40
1530727497.85,7058,19.56,74166.8,5.81,2.73,2.31,0,*4D
1530727499.03,7059,19.56,74162.8,5.79,2.77,2.31,0,*4F
1530727500.21,7060,19.56,74162.5,5.79,2.77,2.31,0,*45
1530727501.43,7061,19.56,74164.5,5.79,2.77,2.39,0,*4C
1530727502.63,7062,19.56,74166.3,5.81,2.73,2.31,0,*44
1530727503.84,7063,19.56,74164.8,5.81,2.77,2.31,0,*41
1530727505.05,7064,19.56,74164.0,5.81,2.77,2.31,0,*46
1530727506.23,7065,19.56,74162.8,5.79,2.73,2.31,0,*44
1530727507.44,7066,19.56,74164.0,5.81,2.77,2.31,0,*44
1530727508.64,7067,19.56,74166.0,5.81,2.77,2.31,0,*45
1530727509.88,7068,19.56,74164.5,5.81,2.77,2.39,0,*42
1530727511.12,7069,19.56,74164.3,5.81,2.81,2.39,0,*4A
1530727512.31,7070,19.56,74166.3,5.79,2.81,2.31,0,*4D
1530727513.55,7071,19.56,74162.5,5.81,2.81,2.39,0,*43
1530727514.76,7072,19.56,74164.5,5.81,2.73,2.31,0,*45
1530727515.94,7073,19.56,74164.3,5.79,2.77,2.31,0,*47
1530727517.13,7074,19.56,74160.8,5.79,2.77,2.27,0,*47
1530727518.37,7075,19.56,74164.0,5.81,2.77,2.39,0,*4E
1530727519.57,7076,19.56,74162.5,5.81,2.77,2.31,0,*45
1530727520.76,7077,19.56,74166.0,5.79,2.81,2.31,0,*4A
1530727522.0,7078,19.56,74162.3,5.81,2.89,2.39,0,*42
1530727523.24,7079,19.56,74164.3,5.81,2.81,2.39,0,*4B
1530727524.42,7080,19.56,74166.5,5.79,2.89,2.31,0,*4A
1530727525.63,7081,19.56,74164.0,5.81,2.73,2.27,0,*4E
1530727526.86,7082,19.56,74164.5,5.81,2.73,2.21,0,*4B
1530727528.07,7083,19.56,74160.8,5.79,2.73,2.21,0,*4D
1530727529.28,7084,19.56,74162.5,5.79,2.73,2.21,0,*4A
1530727530.48,7085,19.56,74164.0,5.79,2.73,2.21,0,*4B
1530727531.7,7086,19.56,74164.5,5.81,2.65,2.21,0,*48
1530727532.93,7087,19.56,74166.3,5.81,2.73,2.21,0,*4E
1530727534.16,7088,19.56,74162.5,5.81,2.73,2.09,0,*4B
1530727535.4,7089,19.56,74166.5,5.81,2.73,2.09,0,*4A
1530727536.61,7090,19.56,74164.0,5.81,2.61,2.09,0,*41
1530727537.85,7091,19.56,74164.3,5.81,2.55,2.01,0,*4F
1530727539.09,7092,19.56,74162.3,5.81,2.51,2.01,0,*48
1530727540.33,7093,19.56,74164.8,5.81,2.51,2.01,0,*49
1530727541.57,7094,19.56,74166.0,5.81,2.55,2.01,0,*4A
1530727542.81,7095,19.56,74160.0,5.81,2.51,2.05,0,*4B
1530727544.05,7096,19.56,74162.3,5.81,2.51,2.05,0,*48
1530727545.29,7097,19.56,74164.5,5.81,2.55,2.05,0,*4D
1530727546.53,7098,19.56,74166.3,5.81,2.51,2.05,0,*46
1530727547.76,7099,19.56,74160.5,5.81,2.55,2.05,0,*43
1530727549.01,7100,19.56,74166.3,5.81,2.51,2.05,0,*46
1530727550.25,7101,19.56,74166.5,5.81,2.43,2.05,0,*44
1530727551.49,7102,19.56,74162.0,5.81,2.39,2.01,0,*4E
1530727552.73,7103,19.56,74164.5,5.81,2.39,2.01,0,*4F
1530727553.97,7104,19.56,74164.0,5.81,2.43,2.01,0,*45
1530727555.2,7105,19.56,74164.0,5.81,2.39,1.93,0,*41
1530727556.42,7106,19.56,74162.8,5.81,2.31,1.93,0,*4A
1530727557.61,7107,19.56,74162.8,5.79,2.31,2.05,0,*40
1530727558.82,7108,19.56,74162.0,5.81,2.31,2.05,0,*48
1530727560.04,7109,19.56,74166.5,5.81,2.31,2.05,0,*49
1530727561.25,7110,19.56,74164.5,5.81,2.31,2.05,0,*41
1530727562.47,7111,19.56,74166.8,5.81,2.31,2.01,0,*44
1530727563.66,7112,19.56,74160.0,5.79,2.27,2.01,0,*47
1530727564.87,7113,19.56,74164.8,5.81,2.27,1.93,0,*49
1530727566.08,7114,19.56,74164.5,5.81,2.27,2.05,0,*42
1530727567.32,7115,19.56,74162.3,5.81,2.21,2.01,0,*41
1530727568.53,7116,19.56,74160.8,5.79,2.21,2.01,0,*45
1530727569.77,7117,19.56,74164.0,5.81,2.17,1.93,0,*4E
1530727571.0,7118,19.56,74164.5,5.81,2.05,1.93,0,*42
1530727572.23,7119,19.56,74162.3,5.79,2.17,2.01,0,*4F
1530727573.47,7120,19.56,74160.8,5.81,2.17,2.01,0,*42
1530727574.71,7121,19.56,74162.5,5.81,2.09,2.01,0,*4C
1530727575.95,7122,19.56,74164.0,5.81,2.17,2.01,0,*40
1530727577.17,7123,19.56,74162.3,5.79,2.17,2.05,0,*42
1530727578.39,7124,19.56,74160.0,5.79,2.21,2.05,0,*40
1530727579.63,7125,19.56,74166.3,5.81,2.17,2.05,0,*43
1530727580.88,7126,19.56,74164.8,5.81,2.17,2.05,0,*40
1530727582.11,7127,19.56,74162.5,5.81,2.21,2.05,0,*44
1530727583.36,7128,19.56,74160.8,5.81,2.17,2.05,0,*4E
1530727584.59,7129,19.56,74166.5,5.81,2.21,2.09,0,*46
1530727585.83,7130,19.56,74160.8,5.81,2.05,2.01,0,*40
1530727587.07,7131,19.56,74162.5,5.81,2.09,2.05,0,*49
1530727588.28,7132,19.56,74162.5,5.79,2.09,2.05,0,*4D
1530727589.52,7133,19.56,74160.0,5.81,2.05,2.01,0,*43
1530727590.76,7134,19.56,74162.8,5.81,2.09,2.05,0,*4C
1530727591.98,7135,19.56,74164.8,5.79,2.09,2.05,0,*4A
1530727593.19,7136,19.56,74164.8,5.79,2.09,2.05,0,*49
1530727594.44,7137,19.56,74162.3,5.81,2.17,2.09,0,*4C
1530727595.68,7138,19.56,74164.0,5.81,2.17,2.05,0,*4F
1530727596.93,7139,19.56,74160.5,5.81,2.17,2.09,0,*42
1530727598.15,7140,19.56,74162.5,5.79,2.17,2.09,0,*4B
1530727599.4,7141,19.56,74160.8,5.81,2.17,2.05,0,*41
1530727600.64,7142,19.56,74166.5,5.81,2.17,2.09,0,*4E
1530727601.88,7143,19.56,74164.5,5.81,2.21,2.05,0,*46
1530727603.12,7144,19.56,74166.3,5.81,2.17,2.05,0,*44
1530727604.37,7145,19.56,74164.0,5.81,2.17,2.01,0,*41
1530727605.6,7146,19.56,74164.8,5.81,2.21,2.05,0,*43
1530727606.82,7147,19.56,74164.8,5.81,2.31,2.05,0,*43
1530727608.03,7148,19.56,74164.8,5.81,2.31,2.05,0,*4C
1530727609.25,7149,19.56,74164.3,5.81,2.31,2.05,0,*4D
1530727610.46,7150,19.56,74164.3,5.81,2.31,2.05,0,*45
1530727611.68,7151,19.56,74164.0,5.81,2.31,2.01,0,*40
1530727612.89,7152,19.56,74168.0,5.81,2.27,2.01,0,*44
1530727614.1,7153,19.56,74164.8,5.81,2.31,1.89,0,*41
1530727615.31,7154,19.56,74166.5,5.81,2.27,1.89,0,*41
1530727616.52,7155,19.56,74164.3,5.81,2.31,1.93,0,*4C
1530727617.71,7156,19.56,74166.0,5.81,2.31,1.83,0,*4E
1530727618.9,7157,19.56,74164.5,5.81,2.31,1.83,0,*4F
1530727620.13,7158,19.56,74166.8,5.81,2.39,1.71,0,*45
1530727621.35,7159,19.56,74162.0,5.79,2.39,1.71,0,*43
1530727622.56,7160,19.56,74162.3,5.79,2.39,1.71,0,*49
1530727623.8,7161,19.56,74162.8,5.81,2.43,1.71,0,*42
1530727625.03,7162,19.56,74164.0,5.81,2.39,1.67,0,*4B
1530727626.27,7163,19.56,74166.0,5.81,2.43,1.67,0,*47
1530727627.51,7164,19.56,74162.8,5.81,2.51,1.59,0,*4E
1530727628.71,7165,19.56,74166.5,5.79,2.55,1.59,0,*4C
1530727629.95,7166,19.56,74164.8,5.81,2.55,1.43,0,*43
1530727631.18,7167,19.56,74162.8,5.81,2.55,1.43,0,*42
1530727632.41,7168,19.56,74164.5,5.81,2.55,1.43,0,*4D
1530727633.64,7169,19.56,74166.8,5.81,2.55,1.29,0,*40
1530727634.88,7170,19.56,74164.0,5.81,2.55,1.21,0,*40
1530727636.1,7171,19.56,74160.8,5.83,2.55,1.09,0,*49
1530727637.3,7172,19.56,74166.3,5.83,2.65,1.09,0,*49
1530727638.52,7173,19.56,74164.0,5.83,2.55,0.91,0,*7B
1530727639.75,7174,19.56,74164.3,5.81,2.51,0.83,0,*79
1530727640.99,7175,19.56,74162.5,5.81,2.55,0.75,0,*75
1530727642.21,7176,19.56,74162.5,5.83,2.59,0.75,0,*78
1530727643.42,7177,19.56,74164.3,5.83,2.55,0.63,0,*72
1530727644.63,7178,19.56,74162.3,5.81,2.55,0.43,0,*7D
1530727645.86,7179,19.56,74164.0,5.81,2.51,0.25,0,*78
1530727647.08,7180,19.56,74164.8,5.79,2.51,0.21,0,*7D
1530727648.29,7181,19.56,74164.0,5.81,2.51,0.09,0,*41
1530727649.51,7182,19.56,74164.8,5.81,2.43,-0.03,0,*66
1530727650.75,7183,19.56,74164.3,5.81,2.51,-0.23,0,*56
1530727651.98,7184,19.56,74166.0,5.81,2.51,-0.37,0,*54
1530727653.17,7185,19.56,74166.0,5.79,2.39,-0.53,0,*5E
1530727654.39,7186,19.56,74164.0,5.81,2.39,-0.77,0,*5C
1530727655.61,7187,19.56,74162.3,5.81,2.39,-0.77,0,*5D
1530727656.85,7188,19.56,74162.8,5.81,2.39,-0.97,0,*5C
1530727658.06,7189,19.56,74166.8,5.81,2.27,-1.13,0,*6F
1530727659.31,7190,19.56,74162.8,5.81,2.21,-1.35,0,*65
1530727660.55,7191,19.56,74162.5,5.81,2.21,-1.39,0,*68
1530727661.75,7192,19.56,74164.0,5.79,2.01,-1.71,0,*62
1530727662.97,7193,19.56,74166.0,5.81,1.83,-1.91,0,*63
1530727664.21,7194,19.56,74162.3,5.83,1.85,-1.99,0,*68
1530727665.43,7195,19.56,74164.8,5.81,1.71,-2.15,0,*67
1530727666.65,7196,19.56,74164.0,5.81,1.59,-2.35,0,*6C
1530727667.9,7197,19.56,74164.0,5.81,1.55,-2.51,0,*63
1530727669.14,7198,19.56,74166.8,5.79,1.37,-2.75,0,*69
1530727670.37,7199,19.56,74164.3,5.81,1.21,-2.79,0,*64
1530727671.59,7200,19.56,74164.8,5.81,1.09,-3.03,0,*61
1530727672.78,7201,19.56,74162.5,5.81,0.97,-3.03,0,*56
1530727674.0,7202,19.56,74162.3,5.81,0.83,-3.27,0,*56
1530727675.22,7203,19.56,74164.0,5.81,0.71,-3.39,0,*55
1530727676.44,7204,19.56,74166.5,5.81,0.59,-3.55,0,*52
1530727677.64,7205,19.56,74164.3,5.81,0.43,-3.63,0,*5D
1530727678.83,7206,19.56,74164.0,5.79,0.25,-3.79,0,*52
1530727680.01,7207,19.56,74162.8,5.81,0.01,-3.91,0,*64
1530727681.21,7208,19.56,74164.8,5.81,-0.11,-4.13,0,*7A
1530727682.43,7209,19.56,74164.3,5.81,-0.23,-4.17,0,*7E
1530727683.59,7210,19.56,74162.3,5.79,-0.29,-4.17,0,*7B
1530727684.77,7211,19.56,74162.5,5.79,-0.53,-4.25,0,*76
1530727685.94,7212,19.56,74166.0,5.79,-0.65,-4.33,0,*77
1530727687.14,7213,19.56,74166.0,5.81,-0.77,-4.33,0,*72
1530727688.34,7214,19.56,74166.0,5.79,-1.01,-4.41,0,*47
1530727689.52,7215,19.56,74164.0,5.79,-1.25,-4.53,0,*43
1530727690.72,7216,19.56,74164.0,5.81,-1.29,-4.45,0,*4C
1530727691.93,7217,19.56,74164.0,5.79,-1.39,-4.53,0,*4C
1530727693.14,7218,19.56,74166.8,5.79,-1.47,-4.53,0,*4A
1530727694.35,7219,19.56,74166.0,5.81,-1.71,-4.57,0,*4D
1530727695.58,7220,19.56,74164.0,5.79,-1.91,-4.69,0,*43
1530727696.81,7221,19.56,74164.5,5.79,-1.99,-4.69,0,*4A
1530727698.02,7222,19.56,74164.5,5.79,-2.11,-4.65,0,*46
1530727699.23,7223,19.56,74160.0,5.81,-2.27,-4.65,0,*45
1530727700.41,7224,19.56,74164.0,5.79,-2.35,-4.57,0,*47
1530727701.58,7225,19.56,74164.8,5.79,-2.39,-4.57,0,*4A
1530727702.78,7226,19.56,74164.0,5.79,-2.51,-4.45,0,*44
1530727704.01,7227,19.56,74162.3,5.81,-2.63,-4.53,0,*44
1530727705.22,7228,19.56,74164.3,5.79,-2.63,-4.41,0,*4F
1530727706.42,7229,19.56,74164.0,5.79,-2.75,-4.41,0,*49
1530727707.6,7230,19.56,74166.5,5.79,-2.79,-4.41,0,*4D
1530727708.78,7231,19.56,74160.5,5.79,-2.79,-4.25,0,*4E
1530727709.95,7232,19.56,74164.8,5.79,-2.91,-4.17,0,*4A
1530727711.15,7233,19.56,74164.5,5.81,-2.99,-4.05,0,*47
1530727712.35,7234,19.56,74164.3,5.77,-3.07,-4.09,0,*43
1530727713.55,7235,19.56,74166.5,5.79,-3.11,-4.01,0,*43
1530727714.73,7236,19.56,74160.3,5.79,-3.03,-3.87,0,*4A
1530727715.93,7237,19.56,74164.5,5.77,-3.19,-3.83,0,*4A
1530727717.13,7238,19.56,74164.8,5.77,-3.27,-3.83,0,*48
1530727718.33,7239,19.56,74166.5,5.77,-3.31,-3.83,0,*4E
1530727719.53,7240,19.56,74166.0,5.77,-3.27,-3.83,0,*47
1530727720.75,7241,19.56,74162.3,5.77,-3.19,-3.71,0,*46
1530727721.98,7242,19.56,74162.0,5.77,-3.27,-3.71,0,*48
1530727723.2,7243,19.56,74166.0,5.77,-3.31,-3.71,0,*4E
1530727724.42,7244,19.56,74166.0,5.77,-3.31,-3.71,0,*49
1530727725.64,7245,19.56,74164.8,5.77,-3.39,-3.67,0,*47
1530727726.86,7246,19.56,74164.0,5.77,-3.39,-3.67,0,*44
1530727728.08,7247,19.56,74164.3,5.75,-3.43,-3.71,0,*4D
1530727729.3,7248,19.56,74164.3,5.75,-3.43,-3.71,0,*42
1530727730.52,7249,19.56,74166.3,5.75,-3.47,-3.71,0,*47
1530727731.74,7250,19.56,74166.8,5.77,-3.39,-3.67,0,*43
1530727732.96,7251,19.56,74166.8,5.75,-3.43,-3.71,0,*4A
1530727734.17,7252,19.56,74166.5,5.75,-3.43,-3.75,0,*4D